Weather in Zenkino

Russia / Lipetsk Oblast     53°07′50″N   39°43′50″E
temp.,
°C
wind,
m/s
gust,
m/s
humid.,
%
clouds,
%
prec.,
mm/h
press.,
hPa
HPBL,
m
16 may, sun
sun1600:00+15sw33855 0.0 101327
03:00+13ssw228610 0.0 101418
06:00+14s238535 0.0 101468
09:00+20s357110 0.0 1014448
12:00+23ssw3551100 0.0 10142031
15:00+24sw35465 0.0 10142021
18:00+23w1260100 0.0 1013114
21:00+18ne226428 0.0 101416
17 may, mon
mon1700:00+16e368299 0.0 101494
03:00+15ene398763 0.0 1013158
06:00+16ene379095 0.0 1013168
09:00+21ese566984 0.0 1013355
12:00+24se685352 0.0 1012823
15:00+26ese69535 0.0 10111086
18:00+22se51268100 0.0 1011498
21:00+18ese4148196 0.0 1011282
18 may, tue
tue1800:00+18se6166313 0.0 1010378
03:00+15se4136345 0.0 1010253
06:00+15ese4117398 0.0 1010236
09:00+20se6105898 0.0 1010398
12:00+25se694734 0.0 1010715
15:00+26ese6115071 0.0 10091510
18:00+23se61464100 0.0 1008568
21:00+20ese61765100 0.0 1007502
19 may, wed
wed1900:00+20se6155378 0.0 1007485
03:00+15se487162 0.0 1008141
06:00+16ese3581100 0.0 1008133
09:00+19sse4674100 0.0 1008612
12:00+22s5765100 0.0 10081207
15:00+22sse4965100 0.0 10081367
18:00+19ssw5980100 0.4 1007313
21:00+16ese3590100 1.3 1007131
20 may, thu
thu2000:00+14s379614 0.4 1008209
03:00+13s4897100 0.4 1008234
06:00+13s599332 0.1 1008495
09:00+13ssw6886100 0.2 1010813
12:00+15ssw5773100 0.0 10111062
15:00+16ssw677246 0.1 10121091
18:00+15sw687970 0.2 1013912
21:00+13sw388274 0.2 1015358